Location: The Saddle
(36.8333°N, 80.3417°W)
Time: 01:50:14
(UTC-05:00)

CZ-6A DEB - Visible Passes

Search period start: 11 November 2024 00:00
Search period end: 21 November 2024 00:00
Orbit: 826 x 902 km, 98.8° (Epoch: 10 November)

Date Brightness Start Highest point End Pass type
(mag) Time Alt. Az. Time Alt. Az. Time Alt. Az.
11 Nov ? 05:50:20 10° NNE 05:55:47 60° E 06:01:07 10° S visible
11 Nov ? 19:02:25 10° W 19:03:09 10° W 19:03:55 10° W visible
12 Nov ? 05:42:37 10° NNE 05:47:58 51° E 05:53:11 10° S visible
12 Nov ? 18:52:53 10° WSW 18:55:16 13° W 18:57:40 10° WNW visible
13 Nov ? 05:34:56 10° NNE 05:40:08 42° E 05:45:13 10° S visible
13 Nov ? 18:44:09 10° SW 18:47:23 15° W 18:50:36 10° WNW visible
14 Nov ? 05:27:16 10° NNE 05:32:17 36° E 05:37:12 10° SSE visible
14 Nov ? 18:35:41 10° SW 18:39:30 18° W 18:43:19 10° NW visible
15 Nov ? 05:19:39 10° NE 05:24:26 30° E 05:29:07 10° SSE visible
15 Nov ? 18:27:21 10° SW 18:31:37 21° W 18:35:54 10° NW visible
16 Nov ? 05:12:05 10° NE 05:16:34 26° E 05:20:58 10° SSE visible
16 Nov ? 18:19:08 10° SSW 18:23:46 25° W 18:28:24 10° NW visible
17 Nov ? 05:04:34 10° NE 05:08:40 22° E 05:12:44 10° SE visible
17 Nov ? 18:10:59 10° SSW 18:15:55 29° W 18:20:49 10° NW visible
18 Nov ? 04:57:08 10° NE 05:00:47 18° E 05:04:23 10° SE visible
18 Nov ? 06:36:46 10° N 06:42:02 50° WNW 06:47:11 10° SW visible
18 Nov ? 18:02:53 10° SSW 18:08:03 34° W 18:13:13 10° NNW visible
19 Nov ? 04:49:49 10° ENE 04:52:53 15° E 04:55:54 10° SE visible
19 Nov ? 06:28:53 10° N 06:34:14 59° WNW 06:39:30 10° SSW visible
19 Nov ? 17:54:51 10° SSW 18:00:12 40° W 18:05:32 10° NNW visible
20 Nov ? 04:42:45 10° ENE 04:44:58 12° E 04:47:09 10° ESE visible
20 Nov ? 06:21:01 10° N 06:26:26 70° WNW 06:31:46 10° SSW visible
20 Nov ? 17:46:51 10° S 17:52:22 48° W 17:57:50 10° NNW visible
